Find Local Weather

World > North America > United States > Tennessee

Lawrenceburg, Tennessee Regional Weather

Lat: 35.25N, Lon: 87.34W
Wx Zone: TNZ094
Feedback
Expires:201805270200;;582319
ASUS44 KMEG 270110
RWRTN 
TENNESSEE HOURLY STATE WEATHER ROUNDUP
NATIONAL WEATHER SERVICE MEMPHIS TN
800 PM CDT SAT MAY 26 2018


TNZ061-075-076-078-094-096-097-270200-
SOUTH MIDDLE TENNESSEE
  
CITY           SKY/WX    TMP DP  RH WIND       PRES   REMARKS
LEWISBURG      PTCLDY    75  68  78 CALM      29.87S                  
FAYETTEVILLE   CLEAR     77  68  73 CALM      29.88R                  
TULLAHOMA      PTCLDY    73  66  78 CALM      29.90R                  
WINCHESTER     MOCLDY    72  70  94 SE3       29.89S                  
MCMINNVILLE    PTCLDY    73  68  83 CALM      29.90R                  
COLUMBIA       CLEAR     77  75  94 CALM      29.86S                  
SHELBYVILLE    CLEAR     73  72  94 CALM      29.88R                  
$$


SKY/WX - Weather  TMP - Temperature  DP - Dewpoint  RH - Relative Humidity
WIND - Wind Direction/Speed PRES - Barometric Pressure